Regional Weather Roundup
Issued by NWS

Home | Current Version | Previous Version | Text Only | Print | Product List | Glossary Off
Versions: 1 2 3 4 5 6 7 8 9 10 11 12 13 14 15 16 17 18 19 20 21 22 23 24 25 26 27 28 29 30 31 32 33 34 35 36 37 38 39 40 41 42 43 44 45 46 47 48 49 50

000
ASUS45 KPSR 030000
RWRAZ

ARIZONA HOURLY REGIONAL WEATHER ROUNDUP
NATIONAL WEATHER SERVICE PHOENIX AZ
500 PM MST SUN AUG 02 2015

NOTE: FAIR INDICATES FEW OR NO CLOUDS BELOW 12,000 FEET WITH NO
SIGNIFICANT WEATHER AND/OR OBSTRUCTIONS TO VISIBILITY.

AZZ001>003-036-030100-
NORTHWEST ARIZONA

CITY           SKY/WX    TMP DP  RH WIND       PRES   REMARKS
KINGMAN        SUNNY     95  44  17 MISG      29.93F
6HR MIN TEMP:  90; 6HR MAX TEMP:  99;

$$

AZZ004>008-015-016-018-030100-
NORTH CENTRAL ARIZONA

CITY           SKY/WX    TMP DP  RH WIND       PRES   REMARKS
GRAND CANYON   CLOUDY    72  55  55 VRB6      30.19F
6HR MIN TEMP:  64; 6HR MAX TEMP:  80; 6HR PCP:  0.02;

WILLIAMS       CLOUDY    72  59  64 NE8       30.24F
PRESCOTT       MOSUNNY   88  48  25 W14       30.05S
6HR MIN TEMP:  81; 6HR MAX TEMP:  89;

FLAGSTAFF      NOT AVBL
PAYSON         MOSUNNY   86  50  28 SW8G17    30.07S
PAGE           CLOUDY    79  62  56 NE6       30.01F
6HR MIN TEMP:  66; 6HR MAX TEMP:  80; 6HR PCP: TRACE;

$$

AZZ009>014-017-030100-
NORTHEAST ARIZONA

CITY           SKY/WX    TMP DP  RH WIND       PRES   REMARKS
WINSLOW        NOT AVBL
SAINT JOHNS    MOSUNNY   84  50  30 SW17G24   30.08F
6HR MIN TEMP:  75; 6HR MAX TEMP:  86;

SHOW LOW       MOSUNNY   79  48  34 SW15G22   30.17F
$$

AZZ023-030100-
GREATER PHOENIX AREA

CITY           SKY/WX    TMP DP  RH WIND       PRES   REMARKS
PHOENIX        MOSUNNY  108  46  12 W14       29.70F HX 104
6HR MIN TEMP:  98; 6HR MAX TEMP: 108;

GLENDALE       MOSUNNY  108  48  13 S8        29.71F HX 104
DEER VALLEY    MOSUNNY  105  51  16 SW8G17    29.72F HX 102
6HR MIN TEMP:  96; 6HR MAX TEMP: 106;

SCOTTSDALE     SUNNY    105  49  15 VRB5      29.75F HX 102
6HR MIN TEMP:  96; 6HR MAX TEMP: 106;

MESA-FALCON    MOSUNNY  106  48  14 W14       29.74F HX 102
MESA-GATEWAY   MOSUNNY  102  54  19 SW12      29.76F HX 100
CHANDLER       MOSUNNY  106  50  15 SW13      29.75S HX 103
$$

AZZ027-028-030100-
SOUTHWEST MARICOPA COUNTY AND PINAL COUNTY

CITY           SKY/WX    TMP DP  RH WIND       PRES   REMARKS
CASA GRANDE    SUNNY    104  52  17 NW7G22    29.74F HX 101
6HR MIN TEMP:  97; 6HR MAX TEMP: 106;

GILA BEND      MOSUNNY  109  47  12 NW14      29.69  HX 105
6HR MIN TEMP: 101; 6HR MAX TEMP: 109;

$$

AZZ503-504-507>509-030100-
SOUTHEAST ARIZONA

CITY           SKY/WX    TMP DP  RH WIND       PRES   REMARKS
TUCSON         MOSUNNY  100  52  19 N9        29.86F
6HR MIN TEMP:  93; 6HR MAX TEMP: 101;

DAVIS-MONTHAN  SUNNY     99  53  20 NW9       29.85F
6HR MIN TEMP:  92; 6HR MAX TEMP:  99;

RYAN FIELD     SUNNY    102  54  19 NW10      29.84F HX 100
NOGALES        PTSUNNY   93  57  29 VRB5      29.98F
6HR MIN TEMP:  86; 6HR MAX TEMP:  94;

SIERRA VISTA   PTSUNNY   88  55  32 W10       30.04F
6HR MIN TEMP:  82; 6HR MAX TEMP:  88;

SAFFORD        MOSUNNY   97  53  22 NW9G20    29.87F
6HR MIN TEMP:  87; 6HR MAX TEMP:  99;

$$

AZZ020-021-025-026-031-030100-
SOUTHWEST ARIZONA

CITY           SKY/WX    TMP DP  RH WIND       PRES   REMARKS
YUMA           NOT AVBL
$$

CAZ031-033-041-043-047-048-061-030100-
SOUTHERN CALIFORNIA

CITY           SKY/WX    TMP DP  RH WIND       PRES   REMARKS
DOWNTOWN L.A.  SUNNY     78  64  61 VRB7      29.83F
6HR MIN TEMP:  78; 6HR MAX TEMP:  84;

L.A. AIRPORT   MOSUNNY   74  65  73 W13       29.85F
6HR MIN TEMP:  74; 6HR MAX TEMP:  77;

SAN DIEGO      MOSUNNY   75  62  64 W9        29.87F
6HR MIN TEMP:  71; 6HR MAX TEMP:  78;

BURBANK        SUNNY     86  63  45 S9        29.83F
6HR MIN TEMP:  79; 6HR MAX TEMP:  89;

ONTARIO        MOSUNNY   92  61  35 W13       29.82F
6HR MIN TEMP:  80; 6HR MAX TEMP:  93;

RIVERSIDE      SUNNY     90  62  39 W13G18    29.82F
6HR MIN TEMP:  80; 6HR MAX TEMP:  93;

PALM SPRINGS   SUNNY    111  49  12 NW18G24   29.69F HX 107
6HR MIN TEMP: 104; 6HR MAX TEMP: 113;

EL CENTRO NAS  SUNNY    112  41   9 SW8       29.65F HX 106
6HR MIN TEMP: 103; 6HR MAX TEMP: 112;

IMPERIAL       SUNNY    109  47  12 W5        29.63F HX 105
6HR MIN TEMP: 100; 6HR MAX TEMP: 111;

BLYTHE         MOSUNNY  109  51  14 S12       29.66F HX 106
6HR MIN TEMP: 101; 6HR MAX TEMP: 112;

$$

NVZ020-UTZ003-030100-
SOUTHERN NEVADA-UTAH

CITY           SKY/WX    TMP DP  RH WIND       PRES   REMARKS
LAS VEGAS      NOT AVBL
SALT LAKE CITY CLOUDY    83  47  28 S21G29    29.96R
6HR MIN TEMP:  82; 6HR MAX TEMP:  92; 6HR PCP: TRACE;

$$

NMZ009-TXZ055-030100-
NEW MEXICO-WEST TEXAS

CITY           SKY/WX    TMP DP  RH WIND       PRES   REMARKS
ALBUQUERQUE    CLOUDY    78  55  44 SW17G24   30.12R
6HR MIN TEMP:  78; 6HR MAX TEMP:  83;

EL PASO        MOSUNNY   94  54  25 VRB5      29.93F
6HR MIN TEMP:  89; 6HR MAX TEMP:  96;

$$


........................KEY........................
SKY/WX - SKY CONDITION/WEATHER
TMP    - TEMPERATURE IN FAHRENHEIT
DP     - DEW POINT IN FAHRENHEIT
RH     - RELATIVE HUMIDITY IN PERCENT
WIND   - DIRECTION AND SPEED IN MILES PER HOUR (MPH)
VRB    - VARIABLE WIND DIRECTION
PRES   - MEAN SEA LEVEL PRESSURE IN INCHES OF MERCURY
         F - FALLING PRESSURE   R - RISING PRESSURE
         S - STEADY PRESSURE
VSB    - VISIBILITY IN MILES
HX     - HEAT INDEX IN FAHRENHEIT
WCI    - WIND CHILL INDEX IN FAHRENHEIT
TC     - TEMPERATURE IN CELSIUS WHICH IS ALSO KNOWN AS
         TEMPERATURE IN CENTIGRADE
AFB    - AIR FORCE BASE
         LUKE AFB IS LUKE AIR FORCE BASE
         DAVIS-MONTHAN IS DAVIS-MONTHAN AIR FORCE BASE
NAS    - NAVAL AIR STATION
         EL CENTRO NAS IS EL CENTRO NAVAL AIR STATION
N/A    - NOT AVAILABLE



USA.gov is the U.S. government's official web portal to all federal, state and local government web resources and services.